Wind_Speed
12 11 12 12 13 13 13 13 13 14 14 14 13 12 11 10 10 10 10 10 10 10 11 11 11 12 13 14 15 17 18 19 20 21 23 22 16 10 7 8 9 9 11 12 12 11 9 9 9 7 7 6 7 7 8 9 9 7 5 9 11 12 13 11 12 11 9 9 9 10 11 10 12 13 11 12 15 17 17 19 19 18 19 19 19 20 23 26
13 12 12 13 13 13 13 13 14 15 15 15 15 14 13 12 12 12 12 12 12 12 12 12 13 13 14 15 16 18 20 21 23 25 23 14 3 1 6 10 10 9 11 12 11 11 9 8 9 8 7 7 7 7 7 7 9 9 7 9 11 11 11 9 12 13 12 13 14 15 17 15 15 16 12 11 19 20 18 20 21 22 21 20 22 24 26 28
14 13 13 13 14 14 14 14 14 15 15 16 16 16 15 14 14 13 13 14 14 14 14 14 14 15 15 16 18 19 21 23 26 26 15 5 5 4 11 11 10 11 12 12 12 12 10 9 9 7 8 8 7 6 7 6 8 10 9 9 11 11 10 9 11 14 15 16 16 17 19 19 17 16 13 13 20 21 19 19 20 23 23 21 22 23 25 30
14 14 14 14 15 14 14 14 14 15 15 16 16 16 16 15 15 15 15 15 16 16 16 16 16 16 16 17 18 19 20 21 21 15 6 9 4 13 14 10 9 11 11 12 12 10 9 8 7 5 7 7 6 6 7 8 7 6 7 10 11 9 9 13 15 17 18 18 18 19 18 18 18 19 19 18 17 18 19 19 20 23 25 24 25 25 25 28
14 14 15 16 16 15 14 14 14 15 15 16 16 16 16 15 15 16 16 17 18 18 18 18 18 18 18 18 19 18 17 13 5 3 8 7 12 19 15 10 9 10 11 11 9 7 7 5 3 5 6 5 5 6 8 11 8 5 9 14 14 10 10 16 18 17 19 19 18 17 16 19 21 21 23 21 18 17 18 20 21 23 25 27 28 29 28 27
14 15 16 17 17 16 15 14 15 15 16 16 16 16 16 16 16 16 16 17 18 19 20 20 20 19 19 19 19 16 11 7 5 5 8 13 21 21 14 9 9 10 10 8 6 5 5 3 4 6 5 5 5 6 7 9 9 7 11 14 17 16 14 17 18 17 19 19 17 16 18 20 20 22 24 26 28 27 25 25 27 28 29 29 30 31 30 30
15 15 16 18 18 17 17 16 16 17 17 17 17 17 16 16 16 16 17 17 18 19 20 20 20 20 19 18 18 15 13 19 20 18 20 22 21 16 10 8 9 10 9 7 5 5 4 5 6 5 5 5 5 7 7 5 9 9 11 13 17 19 19 20 21 20 18 19 20 21 20 18 19 21 22 29 32 30 27 26 28 31 32 32 32 33 34 35
15 15 16 18 19 19 19 18 18 18 18 18 18 18 17 17 17 17 17 18 19 19 19 20 20 19 19 17 15 13 18 27 26 21 19 17 14 10 8 9 9 10 9 7 6 5 5 6 7 5 5 5 3 5 5 5 9 11 13 15 15 17 18 20 20 20 19 20 21 22 20 19 24 23 24 32 33 28 27 28 30 32 34 35 34 36 39 41
14 14 15 17 19 20 21 20 19 19 19 19 18 18 18 18 18 18 18 19 19 19 19 19 20 19 18 16 12 11 18 24 18 12 10 10 10 9 9 10 10 10 9 8 7 7 6 6 6 6 6 5 3 6 4 4 6 7 11 14 14 16 17 17 17 19 21 19 17 16 18 21 27 26 23 26 26 26 28 30 32 32 32 34 34 36 39 41
14 14 14 16 17 19 21 21 21 20 20 20 20 19 19 19 19 20 20 20 19 19 18 18 19 18 17 15 9 9 16 17 12 11 9 10 12 10 11 11 11 11 10 10 9 8 8 6 6 6 7 5 5 6 4 5 6 5 11 15 16 19 21 17 17 23 21 17 18 18 19 25 27 20 12 11 17 25 27 28 31 30 31 33 35 37 39 41
14 14 15 17 18 19 21 21 21 21 21 20 20 21 21 21 21 22 22 22 21 19 16 16 16 16 16 15 11 12 18 17 14 14 13 14 14 13 15 13 11 10 10 11 10 9 9 8 7 6 5 3 4 6 6 8 8 9 12 14 17 21 22 18 18 23 17 15 22 20 19 23 21 14 13 20 29 32 29 29 31 31 33 34 35 36 37 40
15 16 17 18 19 21 21 22 22 21 21 20 20 21 21 23 23 23 23 23 22 19 17 14 13 15 15 15 21 23 22 21 20 19 18 18 18 18 17 14 12 10 11 11 10 10 9 8 8 8 6 4 3 4 5 6 8 10 10 12 17 18 19 18 19 19 12 11 13 9 12 16 13 14 21 29 33 31 29 29 29 31 32 32 33 34 33 37
16 17 18 19 20 21 22 23 23 22 21 20 20 20 21 23 23 22 22 22 21 19 17 14 13 14 12 15 26 25 20 19 20 21 22 22 21 20 18 15 13 11 11 11 11 10 9 8 8 10 9 7 5 5 7 7 6 10 9 9 13 14 12 10 10 8 7 9 5 3 8 11 10 14 20 23 23 23 25 26 26 28 30 29 29 31 31 34
18 19 19 20 21 22 24 24 22 22 20 19 19 20 21 22 22 21 20 20 19 17 16 14 12 10 11 19 26 24 20 20 21 22 22 22 22 21 20 17 14 12 11 12 11 10 9 7 7 9 9 9 7 7 9 8 5 7 9 6 7 9 7 3 5 3 5 6 4 5 8 10 12 14 18 20 20 21 23 24 25 26 28 27 26 30 34 35
20 19 20 20 19 20 23 24 22 19 16 17 19 21 21 21 20 19 18 17 16 14 11 9 10 7 10 22 26 21 20 20 20 21 20 20 21 22 21 18 15 12 11 11 10 8 7 6 6 6 5 7 7 7 7 6 5 5 7 7 5 7 9 7 5 6 8 5 5 6 7 11 14 14 18 20 19 21 22 24 25 26 29 29 27 30 35 38
20 19 19 19 17 19 23 24 23 18 15 16 18 20 20 19 17 16 16 14 11 10 8 6 9 7 7 16 18 16 16 15 15 15 16 17 17 18 18 14 12 12 11 10 8 7 6 5 5 5 3 4 5 5 6 7 6 4 4 8 8 8 10 9 4 4 5 5 4 7 8 12 12 12 18 18 19 21 21 24 26 29 31 31 30 29 31 37
22 22 21 20 20 21 24 25 21 16 15 17 18 19 18 16 15 14 13 10 7 6 6 5 5 6 10 15 14 14 15 13 12 12 12 12 13 14 14 11 11 10 9 7 6 5 5 5 3 4 3 2 2 3 6 7 6 3 3 6 9 10 10 10 6 2 2 4 5 9 12 17 17 17 22 24 24 24 23 25 28 30 30 29 29 27 27 31
24 23 23 24 23 22 24 24 18 14 16 17 18 17 14 12 10 9 9 7 6 3 4 6 4 2 12 16 13 12 12 12 12 12 12 11 11 12 12 10 9 8 7 5 6 6 6 4 2 3 3 3 3 4 6 7 8 8 6 6 8 10 10 13 11 2 1 7 11 14 16 19 21 19 23 27 27 24 23 27 28 29 30 29 27 27 26 28
27 26 25 26 25 23 23 22 17 15 16 16 15 11 8 6 5 7 6 8 11 6 3 11 14 5 4 7 8 7 7 8 9 11 12 13 12 12 13 10 8 8 7 4 6 6 5 3 3 4 5 6 7 8 10 11 11 10 8 8 10 10 11 15 14 6 4 10 14 16 17 18 21 21 21 26 26 22 24 27 27 27 28 27 27 28 27 28
26 27 26 24 24 24 24 21 18 15 14 14 10 5 4 4 3 5 7 15 22 18 11 13 20 15 8 5 7 7 6 7 8 9 11 13 13 13 13 10 8 7 5 4 4 5 5 5 5 8 10 9 8 9 12 12 10 8 8 9 10 11 13 15 16 9 2 6 12 14 18 20 22 23 21 25 24 20 21 22 23 25 25 25 25 27 27 30
21 24 24 23 22 22 20 17 16 14 14 13 8 4 6 6 4 3 6 14 24 27 24 22 22 22 18 13 9 8 9 9 10 11 11 14 14 12 11 11 7 6 4 2 3 4 4 6 10 12 10 6 3 5 10 11 10 9 9 10 9 9 13 15 15 9 1 3 10 14 20 22 21 22 21 22 19 17 18 17 19 23 23 22 23 24 26 30
20 20 20 21 21 19 16 14 14 12 12 12 10 10 9 9 9 6 5 10 19 23 25 27 29 30 29 24 18 12 10 9 10 13 14 17 17 11 10 12 7 5 4 4 2 3 5 9 13 9 2 1 2 3 6 9 10 10 7 7 8 7 9 13 9 1 2 3 10 16 19 20 22 22 21 18 14 14 16 15 17 19 19 19 19 20 22 27
19 17 16 18 19 17 14 15 14 12 12 12 13 13 10 9 10 8 6 7 14 20 21 26 31 35 36 31 26 19 14 10 9 15 19 20 18 13 10 10 8 4 5 7 8 6 6 7 8 3 5 5 4 3 5 6 7 7 6 6 8 7 5 8 3 1 3 6 11 15 15 17 19 16 15 12 10 12 12 14 16 17 18 19 19 18 20 24
17 16 16 15 14 14 14 13 15 15 14 14 14 12 8 10 9 5 4 5 8 12 17 22 26 32 35 29 25 23 19 14 10 14 22 23 18 13 10 9 7 5 7 11 12 11 10 4 3 4 6 6 5 4 6 5 5 7 8 8 9 10 8 9 7 8 11 7 5 11 13 11 8 8 11 6 6 8 9 11 12 13 16 18 19 20 20 23
19 18 16 13 11 10 10 11 15 16 15 15 13 9 8 11 8 1 3 5 6 6 9 14 17 23 26 21 18 19 16 15 16 16 20 26 22 11 6 7 6 7 9 9 9 12 12 5 5 3 3 6 6 6 7 6 7 7 8 11 13 13 11 11 10 9 9 4 3 8 10 8 6 11 11 5 5 8 5 5 5 5 7 8 10 12 14 17
21 21 17 15 11 7 8 12 14 14 14 15 12 7 8 10 7 3 2 3 5 4 4 8 10 10 12 13 16 15 7 9 17 20 20 25 25 13 5 6 4 5 6 6 5 7 6 3 4 7 8 8 8 9 7 7 7 7 3 8 12 11 9 9 8 6 6 7 3 4 4 8 13 14 6 5 11 10 5 1 1 1 1 1 5 9 12 13
22 22 20 17 14 13 14 13 11 10 10 12 10 8 10 12 10 5 3 4 5 5 6 5 7 7 6 11 20 15 2 3 11 17 22 24 23 14 6 7 4 2 4 4 4 3 3 4 4 6 7 8 8 8 7 10 7 5 2 2 5 6 7 6 6 5 5 8 6 3 4 6 10 11 5 8 12 6 3 1 1 0 2 4 7 10 13 14
24 23 21 20 19 19 17 14 11 10 9 8 6 12 15 14 11 6 2 4 3 5 5 4 6 7 9 16 21 9 1 5 6 10 20 23 20 11 7 8 6 5 6 6 6 2 2 5 6 7 6 6 7 4 6 12 8 2 3 1 3 3 6 4 4 6 4 7 6 3 4 4 8 10 6 5 6 2 1 5 6 8 8 9 10 12 16 16
25 24 23 22 23 22 20 19 15 13 11 6 8 16 18 15 10 4 1 4 2 4 4 6 8 7 11 16 13 2 2 2 1 7 16 18 17 8 3 6 5 4 6 7 8 2 2 1 3 6 6 5 5 1 5 12 6 1 2 2 2 3 4 3 4 5 3 5 6 2 5 4 8 9 5 2 1 2 5 8 9 11 11 11 12 16 20 19
28 27 25 22 25 27 26 24 18 13 10 8 13 20 19 12 6 3 4 5 2 4 4 6 7 6 12 12 6 2 1 1 2 10 11 9 12 6 2 5 3 3 5 7 10 6 1 1 1 4 5 2 3 3 2 5 2 2 1 3 4 5 4 2 3 3 3 5 2 2 3 4 6 7 3 0 1 2 7 10 11 13 13 15 17 17 21 20
34 30 27 25 29 32 30 27 21 13 10 11 17 22 15 6 2 3 7 3 1 3 4 5 4 8 13 9 4 4 2 1 6 11 8 6 9 5 3 5 4 3 5 7 9 8 7 6 3 4 5 3 4 2 1 1 1 1 2 3 6 4 2 2 3 2 4 4 2 3 2 4 6 6 3 3 3 5 8 10 13 15 16 20 21 17 19 20
41 35 30 28 31 33 32 26 19 13 13 16 22 20 9 2 2 7 5 2 1 4 4 4 5 10 12 4 2 6 3 2 7 9 8 8 9 9 8 7 6 4 5 6 6 4 7 9 6 4 5 6 5 3 2 2 2 3 3 2 5 5 3 4 2 2 4 3 2 2 1 4 9 11 13 15 12 9 9 9 13 16 16 20 21 19 20 16
41 41 34 30 31 35 35 25 15 14 18 22 24 13 2 2 8 10 8 2 0 1 2 4 6 9 10 5 3 6 2 1 7 6 4 6 8 10 11 7 4 2 2 3 4 3 3 3 6 5 3 7 10 7 4 4 5 6 5 3 4 4 4 4 3 2 3 1 1 2 2 5 8 9 13 15 11 7 8 11 15 15 15 17 18 19 18 10
36 43 39 33 31 34 35 28 18 17 22 26 20 6 3 9 10 5 8 6 0 3 3 5 9 9 8 4 2 5 3 2 8 6 4 6 7 9 11 9 7 3 1 2 2 3 3 2 4 5 1 5 11 8 1 2 5 5 3 2 5 4 4 4 3 3 3 3 1 2 1 5 5 4 6 8 8 6 7 10 12 11 10 13 14 17 17 12
29 42 44 36 33 35 36 32 22 19 27 27 12 3 8 13 8 2 5 5 2 2 3 5 8 8 6 4 1 4 4 3 7 6 6 8 7 7 8 9 12 9 4 4 3 3 4 4 2 2 2 2 6 2 3 3 4 2 2 2 4 4 4 3 2 2 2 4 3 4 3 4 6 11 13 10 6 3 2 4 7 8 8 11 14 19 23 21
24 39 46 40 39 40 39 36 26 24 33 24 7 6 12 11 3 2 3 3 4 6 8 5 4 5 5 4 3 5 4 2 7 6 6 7 5 5 6 6 11 14 10 7 3 3 3 1 3 2 0 1 0 0 1 1 2 3 4 4 1 1 2 4 1 1 1 4 3 3 4 5 6 10 8 3 3 2 2 3 3 6 9 13 16 21 27 30
22 34 45 45 45 42 41 39 29 30 34 19 7 10 10 7 3 3 3 4 5 8 9 5 5 5 6 4 4 7 3 2 6 6 5 5 4 7 7 4 8 16 18 10 3 2 3 1 1 1 1 2 2 0 2 2 1 3 3 2 2 1 1 1 2 1 2 5 3 2 6 6 3 4 3 3 7 7 7 7 4 5 8 10 15 21 25 30
20 31 43 47 47 44 43 39 32 36 29 10 10 13 6 4 4 1 4 5 4 5 5 6 5 5 6 4 3 6 6 4 7 6 5 5 4 7 10 7 7 16 21 13 2 0 3 2 1 1 0 2 0 2 3 2 1 1 1 0 1 2 2 2 2 2 3 6 4 3 5 5 4 5 5 7 8 8 8 8 6 6 6 6 12 20 24 29
18 25 31 42 50 46 42 40 38 36 21 5 11 11 4 5 6 3 4 4 2 3 4 5 3 2 3 4 2 5 8 7 8 7 5 5 4 5 10 8 6 12 18 15 4 0 3 4 1 2 1 1 2 4 5 5 3 1 1 2 0 2 1 1 1 1 2 4 5 3 2 3 6 5 5 8 8 6 6 6 5 6 4 4 10 17 21 26
19 15 14 33 50 46 43 42 37 27 11 7 11 8 3 4 6 9 10 7 3 3 5 4 3 4 3 2 1 3 6 6 6 6 4 5 5 4 8 8 3 5 10 12 5 1 2 4 2 2 1 2 4 4 5 6 6 5 5 5 4 2 0 1 1 0 1 3 4 4 4 5 3 3 5 9 7 4 3 4 4 5 4 3 8 13 17 23
21 10 7 29 45 46 46 36 21 13 7 7 11 10 8 4 3 9 13 12 8 4 3 3 5 6 4 3 2 3 5 5 5 5 4 6 6 3 7 9 6 7 7 6 6 4 4 4 3 4 3 4 3 1 2 2 2 4 5 6 7 5 3 3 4 1 0 3 2 2 6 8 3 2 4 4 2 2 3 3 5 6 7 9 12 14 18 25
21 9 8 28 45 53 46 22 8 10 7 10 12 9 9 6 3 5 7 9 10 5 1 2 4 6 4 3 3 4 5 4 5 6 4 6 7 4 5 11 13 14 10 4 4 3 2 1 3 3 3 2 2 3 2 3 2 0 3 3 5 7 7 6 5 3 3 1 0 1 4 6 2 1 1 1 1 3 1 2 5 8 12 18 21 21 23 28
19 10 11 28 51 60 39 10 6 10 6 13 14 6 8 8 4 6 6 8 8 4 3 4 4 7 6 3 4 4 5 5 6 7 4 4 7 5 6 16 19 13 7 3 2 3 3 2 4 4 2 2 3 2 1 2 1 2 4 4 6 7 7 4 2 2 3 4 3 2 5 4 1 2 1 1 2 3 3 6 6 9 14 25 33 32 29 32
17 12 15 32 56 58 30 6 9 12 8 12 12 9 12 9 7 11 10 9 7 3 5 8 5 6 5 3 4 5 6 6 7 8 5 3 4 2 8 22 22 11 5 4 6 8 6 4 5 4 3 3 3 3 2 1 3 4 4 6 8 8 4 2 1 1 3 7 8 6 8 5 1 1 1 2 3 6 5 5 6 10 18 29 38 39 35 35
12 9 16 37 57 52 28 14 13 12 13 15 13 13 14 8 11 18 15 12 11 6 5 7 5 5 4 3 3 6 8 7 6 6 5 4 2 1 5 19 20 10 4 4 9 13 7 3 6 7 6 6 5 4 3 3 4 4 4 7 11 12 11 6 3 5 6 7 10 9 10 8 2 1 5 6 9 13 13 12 12 14 20 28 35 38 39 38
7 6 8 23 40 39 27 20 13 7 12 16 11 12 16 11 9 16 17 14 15 14 8 4 4 6 7 7 7 8 10 9 6 4 3 4 3 2 1 12 13 5 2 4 13 13 2 2 7 8 8 8 4 2 3 3 5 5 7 10 13 14 15 11 6 6 7 7 9 11 13 16 8 3 11 13 12 16 17 15 15 17 21 25 29 33 36 37
7 6 6 11 18 19 15 13 9 6 12 15 9 8 17 17 8 9 16 15 16 18 11 6 7 10 11 13 11 10 11 9 8 9 7 3 2 2 1 5 7 3 3 3 11 10 1 3 7 9 10 8 2 2 4 3 4 6 8 11 13 14 16 15 11 9 9 8 10 11 15 21 10 3 15 19 14 16 17 15 17 21 23 25 27 30 33 37
9 6 12 18 14 7 10 14 12 13 16 15 10 9 16 20 14 10 13 14 15 16 10 8 13 17 16 14 10 9 10 9 11 14 10 3 2 1 1 2 3 3 2 2 6 5 2 4 6 7 10 9 5 4 4 4 5 6 8 11 12 15 17 18 16 13 12 12 11 11 17 23 14 7 16 21 17 15 14 17 23 24 26 29 28 26 29 36
11 8 11 19 12 5 15 23 19 17 18 14 11 12 15 19 20 15 10 9 10 15 15 13 17 22 20 14 10 10 11 11 13 15 10 4 3 3 1 1 1 2 1 2 3 2 2 4 4 6 8 9 9 9 6 7 8 8 11 13 12 15 18 18 18 16 17 20 17 10 17 23 15 10 16 20 23 22 16 19 26 24 25 29 25 21 25 35
10 7 5 9 6 2 10 17 13 11 13 12 10 11 13 16 18 15 11 11 10 12 16 18 20 20 19 16 14 15 17 17 14 10 7 6 5 4 4 3 3 1 3 3 2 2 4 3 3 4 5 7 8 8 8 10 10 12 15 16 14 14 15 15 14 14 16 20 16 15 21 19 10 11 16 17 23 28 22 18 21 25 27 24 19 20 27 34
12 7 5 4 4 3 5 8 9 8 9 10 9 9 13 18 17 12 11 14 13 10 14 21 23 17 14 16 17 20 24 20 14 9 9 10 10 7 5 4 5 4 5 4 3 3 4 3 3 3 5 6 5 6 7 8 9 16 20 18 17 15 12 13 13 12 15 16 13 14 19 14 9 11 14 12 14 22 24 19 18 20 19 16 14 19 26 30
9 6 3 4 3 3 3 3 7 9 9 10 12 13 14 16 13 10 10 11 15 17 19 21 19 12 9 12 21 31 33 26 20 17 12 13 14 11 9 8 7 7 6 5 4 3 4 4 2 3 6 5 1 3 3 2 6 13 13 12 17 17 14 14 13 13 17 14 10 13 14 8 6 9 13 15 15 19 21 16 11 6 5 11 18 20 23 27
Wind_Direction
234 235 237 240 241 241 241 242 245 248 251 254 258 261 264 268 272 276 278 280 281 281 282 286 293 298 302 305 306 307 306 306 306 302 298 303 306 294 296 310 307 299 291 296 303 307 307 298 292 268 248 242 237 236 233 223 214 211 229 245 248 252 254 256 255 256 271 275 272 270 266 271 279 280 287 291 276 266 267 265 263 260 256 256 260 261 260 264
234 238 240 242 244 244 244 244 247 250 252 255 257 260 263 266 269 273 275 278 279 280 281 282 287 293 301 304 307 308 307 309 305 300 300 299 274 252 324 320 315 306 293 295 299 302 299 293 293 268 233 231 233 231 234 218 208 220 240 250 249 257 262 259 259 262 267 270 273 273 271 272 273 280 290 287 279 275 269 267 266 264 262 262 265 266 266 265
234 238 241 245 246 246 246 247 250 252 254 255 257 259 261 263 267 271 274 276 278 279 280 281 284 290 296 301 307 307 310 312 306 303 294 216 172 304 318 316 313 305 292 291 294 296 290 287 290 254 219 230 223 212 227 207 206 228 238 252 257 259 262 255 255 260 262 266 271 271 270 270 269 274 278 275 279 276 267 267 269 268 269 271 271 269 270 269
236 240 244 246 248 247 248 249 251 254 256 257 258 258 260 263 266 269 272 275 277 279 280 282 283 287 292 298 303 306 315 314 304 297 228 180 268 312 317 312 302 298 291 292 294 294 290 287 284 225 209 232 210 205 226 207 206 222 225 252 266 262 262 259 254 253 257 261 263 268 272 270 271 271 268 270 276 269 263 268 268 267 273 276 275 273 271 271
238 243 246 247 248 249 249 250 253 256 258 259 260 260 262 263 266 268 271 274 276 279 280 282 283 286 290 293 298 304 316 317 293 205 182 208 301 310 312 304 295 295 290 294 295 293 288 283 253 188 206 237 203 211 230 214 213 235 237 253 265 261 263 264 256 249 253 258 260 263 267 269 273 269 264 265 262 262 268 271 268 267 273 276 275 275 272 271
241 244 247 248 249 250 251 253 257 260 261 263 264 264 265 265 267 269 270 273 275 278 280 282 283 284 288 291 295 298 300 282 232 221 249 277 298 303 301 292 295 294 292 294 291 290 273 226 194 186 206 238 217 225 239 213 209 245 254 251 256 254 257 264 258 251 250 254 255 258 262 266 269 267 266 262 256 263 271 271 271 271 274 275 274 274 273 270
244 244 247 249 250 253 255 256 258 261 264 266 266 267 268 268 269 270 271 273 274 277 279 281 283 284 288 290 292 288 267 263 267 273 279 284 290 291 283 287 297 292 293 289 272 279 252 208 213 207 216 242 230 233 249 226 211 240 265 259 259 257 257 262 263 261 257 256 259 263 265 262 261 267 269 261 260 268 274 274 272 273 275 274 271 270 270 270
245 247 250 251 251 253 256 260 261 263 265 266 266 266 268 270 271 272 273 274 274 277 279 281 283 284 288 288 288 280 260 270 281 285 282 277 276 275 274 289 298 293 291 277 259 270 254 224 226 210 226 248 231 238 251 254 229 232 258 267 268 265 263 264 266 267 263 260 260 262 261 257 258 263 266 265 269 276 278 277 274 272 272 269 266 265 267 269
247 249 252 254 255 255 256 259 261 263 265 265 266 266 268 271 273 275 275 276 276 276 278 280 282 283 287 283 279 271 267 279 292 289 277 263 263 271 278 289 296 292 283 268 259 259 249 239 237 221 247 260 245 253 241 251 248 229 257 274 276 273 273 270 268 266 262 259 255 257 256 254 256 256 262 268 273 279 275 272 270 266 263 262 261 262 265 268
254 254 255 256 257 258 258 258 259 261 262 263 265 266 268 270 273 277 278 279 278 276 277 278 280 281 281 276 262 257 273 284 291 281 274 268 268 272 279 287 291 284 273 267 263 258 251 249 250 238 257 260 242 251 224 241 275 282 279 283 279 276 275 269 267 267 266 262 247 245 255 258 258 255 258 267 268 271 265 261 264 260 257 258 259 261 263 266
256 254 254 256 258 260 261 260 259 259 260 260 262 264 266 268 271 274 278 279 278 277 276 277 281 279 276 267 234 241 271 279 281 279 275 271 269 272 278 280 282 276 265 264 263 263 257 253 253 238 240 234 238 250 233 247 275 287 291 288 279 277 275 262 257 262 260 260 248 240 256 265 263 255 253 262 265 264 258 257 262 259 258 259 259 260 261 264
253 253 254 256 260 264 266 265 263 261 261 260 260 262 264 266 268 271 275 277 277 276 275 276 277 273 275 262 245 254 272 275 275 274 270 270 268 271 276 273 274 270 259 259 260 264 263 256 244 237 249 252 262 267 246 261 281 284 287 288 285 282 278 263 258 261 244 252 259 242 263 265 252 244 247 258 263 262 258 258 260 259 260 259 260 260 258 262
249 252 256 258 262 267 270 271 269 265 262 261 262 263 263 265 267 270 272 274 274 274 274 275 273 272 269 259 261 269 274 271 270 268 266 266 266 269 269 267 271 265 254 252 255 262 266 261 241 238 253 255 262 280 279 283 281 284 281 279 290 289 283 262 251 264 240 252 259 212 273 276 259 246 245 255 260 258 256 256 257 258 261 259 258 260 258 262
245 248 252 258 265 269 272 273 271 267 264 264 263 262 263 264 266 269 269 271 273 273 274 274 273 271 257 259 270 277 274 269 265 263 263 262 264 266 265 265 267 260 250 249 254 262 263 256 239 240 248 247 260 283 283 276 254 281 290 271 276 283 283 224 195 226 258 256 203 208 269 281 274 261 254 261 261 257 258 258 258 258 260 260 256 260 264 266
247 250 249 254 264 270 273 274 272 270 265 262 261 260 262 264 267 268 267 269 271 269 267 270 270 260 260 270 277 278 271 265 262 262 259 256 257 259 262 262 258 250 243 245 250 253 252 239 226 238 251 245 258 279 279 278 258 261 284 278 263 267 282 277 237 230 260 267 175 211 274 278 272 268 260 262 262 257 256 258 260 260 261 260 257 259 264 267
247 248 248 249 253 262 268 270 272 271 261 258 261 262 263 266 268 267 268 267 265 257 241 244 259 249 264 279 278 273 266 258 259 257 248 247 248 249 253 251 243 239 236 240 246 244 234 215 217 237 261 253 250 271 281 283 271 228 237 279 282 277 292 298 268 185 240 273 201 217 266 281 278 272 264 261 258 255 255 260 261 260 261 259 259 257 258 264
247 246 246 244 244 255 263 265 270 270 262 261 263 264 266 269 270 268 266 256 242 237 227 231 247 244 257 267 268 263 260 254 251 242 236 238 233 233 234 227 225 225 223 228 229 217 201 195 217 235 232 246 240 258 276 276 278 268 235 269 280 275 286 295 285 148 167 264 261 250 258 270 275 274 272 267 260 257 259 264 263 262 261 259 259 256 254 259
249 249 246 244 244 250 259 263 264 264 265 265 266 269 270 273 274 267 256 225 191 184 229 215 171 245 260 250 250 257 254 246 240 235 230 224 216 214 211 210 212 202 195 198 199 191 186 182 214 253 230 212 217 223 248 269 289 299 289 285 289 280 276 282 285 316 354 290 287 279 270 271 277 278 275 271 265 261 260 262 263 263 262 260 258 257 254 253
247 250 251 250 246 246 256 261 256 257 265 267 272 277 271 270 270 262 240 187 178 173 222 202 184 196 268 225 226 245 238 220 221 227 219 211 204 196 194 199 196 182 175 185 184 178 183 185 202 244 245 225 219 217 236 266 287 293 290 286 289 291 283 280 286 300 324 302 288 279 278 281 284 284 280 277 273 265 258 258 260 260 260 260 256 256 254 252
251 251 253 254 251 250 255 258 253 254 263 269 278 282 243 228 237 248 217 208 216 221 232 218 206 220 248 243 235 226 212 202 202 205 202 202 196 185 183 181 178 185 195 204 174 156 185 223 230 234 242 242 230 224 244 269 287 287 281 276 277 284 284 284 290 299 340 295 282 276 282 284 285 284 280 278 277 267 257 256 257 257 255 255 254 255 253 255
266 259 256 257 256 255 255 258 259 254 259 268 271 243 211 197 203 228 216 236 245 241 242 245 236 237 244 248 248 224 211 212 208 203 199 195 187 177 177 173 176 200 198 147 117 137 186 229 239 235 241 261 265 241 253 266 270 266 265 275 278 272 277 283 291 306 4 259 280 289 290 286 283 282 279 279 278 267 258 255 255 256 256 255 255 256 258 264
277 271 264 262 259 258 251 251 259 255 254 262 259 243 225 212 222 244 259 270 272 260 249 247 245 246 246 242 243 232 212 209 208 204 195 184 184 182 171 175 198 206 157 136 155 191 219 239 247 240 188 140 257 245 249 253 259 261 256 268 276 273 284 285 282 320 103 247 291 303 300 291 285 279 276 277 275 268 263 257 256 260 262 261 260 260 264 272
278 278 274 270 263 256 242 240 257 261 251 253 258 254 240 224 223 239 270 283 282 271 252 243 242 244 244 239 235 227 212 211 204 200 194 182 184 189 175 178 206 195 159 189 207 219 228 240 256 236 139 173 218 213 219 243 249 243 242 253 268 278 292 286 275 86 286 273 288 297 292 284 282 279 274 264 257 271 273 262 259 261 264 266 267 269 273 276
269 269 274 282 272 254 243 246 257 261 257 257 265 263 238 215 211 229 282 275 276 272 254 243 239 241 242 239 234 223 217 222 210 198 195 185 176 181 189 187 193 198 197 205 212 234 241 197 115 104 136 183 214 198 199 239 260 233 230 242 262 271 265 266 290 317 302 275 277 306 298 282 283 297 301 285 243 268 269 263 268 265 267 275 278 281 284 281
257 255 263 278 275 258 251 251 252 256 263 263 265 263 225 204 194 175 322 279 258 258 256 239 231 239 238 232 226 214 215 228 222 210 198 191 182 167 178 184 193 218 205 196 213 245 250 194 146 162 166 188 225 240 208 215 272 263 223 223 245 264 268 273 293 317 311 283 60 4 324 299 312 312 314 334 316 316 306 279 297 293 280 289 295 304 309 299
256 251 250 256 261 242 225 236 248 256 259 259 260 248 209 186 160 94 37 297 257 206 204 209 204 218 219 207 191 180 200 235 220 212 201 197 193 177 164 169 193 239 182 168 223 251 252 177 182 230 229 214 233 254 210 182 256 281 230 216 238 258 270 279 290 303 307 300 340 28 302 290 309 311 327 0 329 341 29 58 63 114 244 326 337 339 339 332
256 249 244 244 238 216 213 225 243 250 248 256 253 205 181 160 137 102 68 290 262 167 148 169 172 173 176 172 164 160 184 170 180 199 195 193 193 188 202 179 163 225 149 150 237 234 176 165 183 212 221 221 232 247 193 174 229 272 72 196 229 248 259 265 280 272 288 304 295 204 223 275 295 297 329 349 328 343 92 86 62 302 311 322 331 342 346 346
254 249 242 237 231 223 225 234 248 257 255 263 229 178 162 149 143 125 103 276 270 120 126 140 145 159 157 160 163 157 27 127 139 188 187 187 187 185 219 205 180 186 166 187 228 228 130 182 192 187 196 214 223 240 170 179 220 282 81 222 228 248 264 257 269 273 289 308 295 187 186 265 271 275 303 344 327 319 295 319 326 326 333 331 332 346 350 351
249 247 241 235 230 226 228 234 246 259 256 243 185 166 152 145 149 123 99 251 200 99 106 140 144 142 137 153 175 200 52 137 49 164 171 182 184 178 216 201 186 185 188 222 242 274 69 171 207 190 201 221 205 147 165 186 205 48 117 219 240 235 251 240 254 278 286 280 288 173 173 258 285 280 292 348 308 302 312 318 320 321 325 320 323 335 338 342
243 241 238 231 223 218 219 225 237 248 234 206 174 158 147 149 153 143 227 239 170 89 99 138 145 144 142 151 188 249 176 350 78 139 151 170 177 169 114 155 161 202 219 250 258 268 289 86 356 215 220 215 129 101 165 195 173 42 200 249 272 237 216 217 237 273 269 253 285 88 181 244 292 291 283 19 39 342 318 314 314 318 319 313 317 325 327 331
241 235 233 226 219 217 213 216 229 231 210 191 167 154 149 147 113 190 220 240 92 113 128 141 137 151 159 160 174 185 184 115 146 154 151 157 168 160 134 151 155 205 235 249 251 255 244 227 213 209 200 142 118 134 162 151 55 299 262 299 302 274 213 216 189 177 250 255 105 91 237 231 248 272 286 277 278 291 303 310 310 312 313 312 316 324 325 325
241 235 230 225 222 222 217 220 228 214 195 181 164 160 161 140 222 224 227 7 117 178 146 143 163 166 170 174 159 166 167 153 168 173 167 170 182 184 194 190 164 187 232 232 230 234 239 231 200 172 183 172 180 191 159 147 169 211 228 267 289 294 284 257 224 197 246 269 107 114 309 241 243 262 273 277 284 298 313 314 306 304 305 308 314 321 324 322
240 236 228 220 222 224 220 223 222 195 185 174 166 167 149 185 227 224 213 244 282 159 81 108 147 161 164 169 170 166 175 173 172 181 175 173 191 199 211 218 193 228 236 191 217 228 238 227 171 173 185 178 191 208 216 189 170 187 202 214 243 270 283 259 253 269 263 293 126 131 327 277 263 261 258 264 280 312 315 302 301 301 298 303 313 326 334 337
238 235 227 217 221 226 221 216 207 193 183 170 167 161 141 208 231 204 189 211 352 55 52 100 129 146 169 193 178 164 182 187 169 177 181 173 194 209 215 218 212 230 241 181 227 218 237 269 159 170 138 170 194 213 266 126 153 185 183 202 241 239 261 271 285 291 297 324 245 163 286 269 268 307 289 278 290 301 294 299 310 310 307 318 335 353 6 13
238 233 225 214 214 222 220 211 202 197 183 168 161 177 191 215 232 161 179 187 137 102 81 101 127 143 191 226 200 192 223 208 164 169 191 190 200 207 202 203 196 190 187 206 210 180 232 278 102 105 5 184 197 199 43 109 165 176 130 193 248 231 237 263 328 341 311 311 261 197 242 256 271 297 297 294 298 288 274 310 325 327 344 4 13 20 26 28
242 228 219 210 208 213 215 207 198 191 182 169 157 208 209 225 219 146 186 138 137 143 119 128 154 150 200 211 188 212 242 194 161 174 204 211 232 218 202 200 187 187 190 189 185 171 213 276 84 102 204 136 240 103 70 244 191 149 162 197 221 26 260 244 224 77 220 275 264 205 253 276 290 289 280 287 322 3 53 15 350 350 11 28 32 33 36 36
243 223 211 205 207 211 209 204 194 183 180 176 194 210 217 232 196 165 165 109 124 143 139 182 191 164 195 212 191 188 181 150 171 190 199 199 235 209 201 224 184 188 201 203 211 209 210 252 102 155 168 98 352 247 103 6 334 150 183 190 113 80 308 271 267 279 240 265 269 205 259 281 303 296 301 355 343 357 20 18 14 7 16 29 31 34 38 36
243 223 208 204 209 209 203 201 190 178 177 184 223 224 232 225 217 182 145 128 118 137 169 219 193 165 190 202 178 166 173 175 169 186 193 190 232 187 177 205 191 192 205 208 245 279 204 242 151 136 167 103 153 208 141 90 10 31 272 88 89 226 179 148 248 275 270 279 283 234 263 269 229 252 305 328 336 353 3 6 15 16 16 16 16 24 30 25
239 221 208 205 208 206 200 196 183 174 173 195 222 226 233 217 243 255 183 174 148 153 203 224 199 181 186 180 145 153 180 184 160 180 202 192 216 178 172 197 196 194 199 193 193 345 192 240 223 149 289 71 174 217 192 166 135 63 241 172 189 283 251 163 201 267 258 279 299 292 285 258 215 221 286 295 310 337 345 354 8 1 355 359 7 15 19 14
233 224 212 203 202 200 194 186 175 170 180 209 209 217 214 212 242 241 228 226 207 198 221 218 202 220 194 156 106 152 186 199 173 189 218 195 201 193 186 194 159 165 184 182 202 262 166 226 229 140 187 222 195 207 205 182 167 177 196 187 185 188 330 271 221 189 259 262 287 292 288 279 237 195 243 265 290 320 312 313 318 320 317 317 343 355 1 357
233 224 209 201 197 189 180 172 167 179 199 210 216 226 220 207 227 233 236 233 228 241 229 184 198 213 189 171 206 158 174 201 196 206 232 207 216 237 193 183 144 129 139 162 213 216 180 207 207 156 182 214 200 78 329 266 169 179 198 194 189 177 173 226 222 176 252 254 260 292 293 290 276 189 221 246 283 280 250 263 289 307 312 315 322 332 340 340
233 224 213 201 189 179 173 164 174 193 192 206 213 214 204 198 196 218 231 221 219 241 247 183 211 214 192 174 183 155 167 195 200 208 231 212 218 246 187 163 149 146 141 141 200 186 128 182 208 199 200 196 68 52 350 316 10 70 249 212 190 193 199 219 230 191 165 207 6 24 288 286 299 92 82 89 274 293 259 230 285 307 311 318 322 324 328 329
229 222 222 198 184 179 177 168 190 191 206 215 211 199 197 201 198 204 218 217 209 202 202 209 213 220 221 171 148 163 180 202 199 198 227 228 218 232 170 152 149 150 151 142 153 135 118 183 212 234 229 112 77 85 96 357 46 210 247 216 198 209 211 223 243 167 160 180 168 186 237 253 354 53 81 151 228 262 225 214 258 297 308 317 319 317 321 322
228 208 199 187 182 183 184 171 183 196 211 212 213 214 212 217 213 206 212 220 212 181 203 217 209 216 226 152 148 178 184 202 212 204 214 233 217 219 166 162 161 166 188 183 166 166 174 188 190 209 221 173 164 165 164 216 217 221 226 197 203 209 182 106 71 188 221 203 191 215 241 240 42 26 251 237 258 265 252 240 275 304 310 313 312 310 312 314
222 198 183 181 184 188 193 193 190 197 198 201 213 210 206 221 221 213 212 216 219 210 206 221 207 191 204 155 158 195 199 213 226 208 211 226 223 7 173 179 179 183 206 188 162 166 177 193 179 190 213 211 204 191 192 190 179 204 222 199 203 200 182 168 188 208 214 199 197 219 245 249 242 316 286 284 290 292 295 298 302 303 300 299 301 303 306 308
199 200 180 180 192 200 208 209 206 206 196 199 209 204 204 215 215 209 209 215 224 221 220 237 192 183 205 205 208 222 223 230 240 228 224 212 210 359 171 196 202 214 270 181 162 160 165 242 198 214 231 227 223 173 152 128 143 178 204 200 202 201 194 195 214 215 206 217 218 209 235 258 256 273 285 280 282 287 290 298 300 295 289 288 292 296 300 302
201 200 182 176 200 216 226 223 222 219 200 197 194 188 203 212 208 196 200 209 218 214 218 245 211 205 213 206 212 227 224 226 236 237 236 199 190 318 73 187 217 269 321 213 172 159 128 232 206 227 240 246 278 128 146 170 197 199 199 200 202 200 198 203 215 207 191 230 241 193 217 255 255 212 271 276 277 278 282 290 291 289 288 288 290 293 297 298
216 225 200 190 193 208 219 215 212 213 210 203 195 191 202 208 208 199 196 208 212 199 199 225 220 220 220 204 205 223 216 220 232 230 228 186 132 224 67 110 211 250 324 251 190 168 233 235 198 208 233 241 241 212 184 201 234 227 214 214 205 196 199 207 217 208 192 227 243 182 201 241 244 216 253 268 273 271 275 282 282 283 286 285 287 294 299 297
227 264 228 204 197 189 209 210 206 210 214 210 206 210 209 206 208 208 193 190 203 197 198 214 220 220 218 204 201 217 212 212 225 223 211 190 180 180 139 100 199 255 293 220 216 208 234 236 185 187 231 239 227 223 212 215 239 245 232 227 213 202 202 207 214 213 213 231 243 224 228 242 243 233 243 257 271 275 275 276 277 278 276 277 287 298 296 291
237 270 274 228 221 187 208 213 207 207 214 215 215 217 218 216 213 211 197 183 189 192 195 214 225 218 210 203 204 222 222 214 223 220 176 179 207 185 192 201 144 160 241 210 225 238 224 229 134 149 238 245 220 218 222 226 241 249 240 227 216 214 210 211 218 216 221 237 244 247 254 253 239 241 248 254 273 281 278 267 267 273 276 282 293 293 285 284
242 261 324 304 258 201 199 208 200 203 211 213 214 211 220 227 219 212 211 202 200 192 188 210 225 219 204 202 206 225 230 220 221 216 172 185 209 188 190 203 139 146 205 200 196 209 216 233 94 124 243 248 197 197 226 235 252 261 254 233 216 218 212 210 216 206 212 233 238 238 254 256 227 238 259 262 264 271 273 269 269 276 285 293 286 275 277 284
243 258 331 355 305 244 233 209 195 206 212 211 214 212 219 229 220 214 223 210 209 217 209 208 220 218 201 202 211 224 229 224 224 225 204 200 210 203 204 207 183 179 183 184 206 201 191 209 163 166 234 254 138 149 192 218 258 265 258 216 204 214 216 217 219 207 208 220 230 235 245 250 222 231 257 262 253 253 261 272 283 292 307 293 281 277 285 291
Height
1516 1517 1517 1518 1518 1519 1519 1519 1520 1521 1521 1521 1521 1521 1521 1521 1521 1521 1521 1522 1521 1521 1521 1521 1521 1521 1521 1521 1520 1519 1518 1517 1516 1515 1514 1512 1512 1510 1510 1510 1510 1509 1509 1509 1509 1508 1507 1507 1506 1507 1507 1507 1508 1508 1508 1508 1509 1509 1508 1506 1501 1496 1493 1489 1490 1490 1488 1487 1485 1485 1485 1484 1482 1481 1481 1480 1479 1478 1477 1475 1474 1474 1473 1473 1474 1474 1474 1473
1515 1515 1516 1517 1517 1517 1518 1518 1518 1519 1520 1520 1520 1519 1519 1519 1519 1520 1520 1520 1520 1520 1520 1520 1520 1520 1520 1519 1519 1518 1517 1516 1514 1513 1511 1510 1510 1509 1509 1509 1509 1508 1508 1508 1508 1507 1507 1506 1506 1505 1506 1506 1506 1507 1507 1507 1508 1506 1504 1502 1497 1492 1489 1488 1489 1489 1488 1487 1485 1484 1484 1483 1482 1481 1481 1479 1476 1476 1474 1471 1471 1470 1470 1472 1472 1472 1472 1471
1514 1514 1514 1515 1516 1516 1516 1516 1517 1517 1518 1518 1518 1518 1518 1518 1518 1518 1518 1519 1519 1519 1519 1519 1519 1518 1518 1518 1518 1517 1516 1515 1512 1510 1509 1509 1509 1509 1509 1508 1508 1507 1507 1507 1507 1506 1506 1505 1505 1504 1505 1504 1504 1505 1505 1506 1505 1503 1502 1499 1493 1490 1489 1489 1490 1489 1488 1487 1485 1483 1483 1482 1481 1481 1480 1477 1474 1472 1470 1468 1469 1467 1467 1469 1470 1470 1470 1468
1513 1513 1513 1514 1514 1515 1515 1515 1515 1516 1516 1517 1517 1517 1517 1516 1516 1516 1517 1517 1517 1517 1517 1518 1518 1517 1517 1517 1517 1516 1515 1513 1509 1507 1507 1508 1508 1508 1508 1507 1507 1506 1506 1506 1506 1505 1504 1504 1503 1503 1504 1503 1502 1504 1504 1503 1503 1502 1501 1496 1491 1490 1490 1489 1489 1488 1487 1487 1485 1483 1482 1480 1479 1480 1477 1476 1473 1466 1464 1467 1467 1465 1466 1467 1467 1467 1467 1466
1511 1512 1512 1512 1512 1513 1513 1513 1514 1514 1514 1515 1515 1515 1515 1515 1515 1515 1515 1515 1515 1515 1515 1516 1516 1516 1516 1516 1516 1515 1516 1513 1506 1506 1507 1507 1507 1507 1507 1506 1506 1505 1505 1505 1504 1504 1503 1503 1502 1502 1503 1501 1501 1502 1501 1500 1502 1500 1497 1493 1491 1491 1489 1487 1487 1486 1485 1485 1483 1482 1481 1479 1477 1476 1473 1474 1468 1459 1462 1466 1465 1464 1464 1464 1464 1464 1463 1463
1510 1510 1511 1511 1511 1511 1512 1512 1512 1512 1513 1513 1513 1513 1514 1513 1513 1513 1513 1513 1514 1514 1514 1514 1514 1515 1515 1515 1514 1514 1516 1512 1505 1506 1506 1506 1506 1505 1506 1505 1505 1504 1504 1504 1503 1504 1503 1502 1502 1501 1501 1500 1499 1499 1498 1499 1501 1498 1493 1491 1490 1489 1487 1485 1485 1484 1484 1483 1481 1481 1478 1477 1475 1471 1470 1468 1460 1457 1463 1464 1463 1463 1462 1462 1462 1460 1459 1458
1509 1509 1509 1509 1510 1510 1510 1510 1510 1511 1511 1511 1511 1512 1512 1512 1512 1512 1512 1512 1512 1512 1512 1512 1512 1513 1513 1513 1513 1513 1513 1507 1503 1505 1505 1504 1504 1504 1505 1504 1504 1504 1503 1503 1503 1503 1502 1502 1501 1500 1500 1499 1497 1497 1496 1497 1499 1497 1492 1489 1488 1487 1485 1484 1483 1482 1482 1481 1479 1479 1476 1475 1473 1468 1466 1460 1455 1459 1463 1462 1461 1460 1459 1459 1458 1457 1455 1453
1508 1508 1508 1508 1508 1508 1509 1509 1509 1509 1509 1509 1509 1510 1510 1510 1510 1510 1510 1510 1510 1510 1510 1510 1510 1511 1511 1511 1511 1511 1507 1502 1502 1504 1502 1502 1503 1503 1503 1503 1503 1502 1502 1502 1502 1502 1502 1502 1501 1500 1499 1497 1496 1496 1496 1496 1495 1494 1491 1487 1486 1485 1484 1483 1482 1481 1480 1478 1477 1476 1473 1471 1470 1468 1461 1453 1455 1460 1460 1459 1458 1456 1454 1454 1453 1451 1449 1447
1506 1507 1507 1507 1507 1507 1507 1507 1507 1507 1507 1507 1507 1507 1508 1508 1508 1508 1508 1508 1508 1508 1508 1508 1508 1509 1509 1509 1510 1508 1502 1499 1501 1501 1500 1501 1501 1501 1501 1501 1502 1501 1501 1501 1501 1501 1501 1501 1500 1499 1498 1496 1496 1495 1495 1495 1492 1490 1489 1487 1485 1484 1482 1482 1480 1478 1476 1475 1475 1472 1469 1467 1466 1465 1456 1451 1456 1457 1455 1454 1451 1450 1449 1447 1447 1446 1444 1442
1505 1505 1506 1506 1505 1505 1504 1505 1505 1505 1505 1505 1505 1505 1505 1505 1506 1506 1506 1506 1506 1506 1506 1506 1506 1507 1507 1506 1509 1504 1497 1499 1500 1499 1499 1499 1499 1500 1499 1500 1500 1500 1500 1500 1500 1500 1500 1500 1499 1499 1498 1496 1495 1494 1494 1494 1490 1489 1489 1487 1485 1482 1480 1480 1477 1474 1473 1472 1470 1468 1463 1460 1461 1461 1454 1451 1453 1451 1449 1448 1446 1445 1443 1442 1442 1440 1439 1437
1504 1504 1505 1504 1504 1503 1503 1503 1503 1503 1503 1503 1503 1503 1503 1503 1503 1504 1504 1504 1504 1504 1504 1504 1504 1504 1504 1504 1504 1499 1495 1498 1498 1498 1499 1498 1498 1498 1497 1498 1498 1498 1498 1498 1499 1499 1499 1499 1499 1499 1497 1495 1494 1493 1492 1491 1490 1489 1488 1485 1482 1480 1476 1476 1473 1469 1470 1467 1463 1462 1460 1457 1459 1457 1451 1449 1447 1445 1444 1443 1441 1440 1438 1438 1436 1435 1435 1432
1503 1503 1503 1502 1502 1502 1502 1501 1500 1501 1501 1501 1501 1500 1501 1501 1501 1501 1502 1502 1502 1502 1502 1502 1503 1502 1502 1500 1496 1493 1494 1496 1496 1496 1496 1496 1496 1496 1496 1496 1496 1496 1496 1497 1497 1497 1498 1498 1498 1498 1496 1495 1493 1491 1490 1489 1489 1489 1488 1484 1478 1475 1472 1469 1467 1464 1465 1462 1459 1462 1459 1454 1452 1450 1446 1443 1441 1441 1440 1438 1437 1435 1433 1433 1432 1431 1430 1428
1501 1501 1501 1501 1500 1500 1500 1499 1499 1499 1499 1499 1499 1499 1499 1498 1499 1499 1499 1499 1499 1500 1500 1500 1500 1500 1501 1495 1488 1490 1493 1493 1493 1493 1493 1493 1494 1493 1494 1494 1494 1495 1495 1495 1496 1496 1497 1496 1497 1497 1496 1495 1492 1491 1489 1488 1489 1487 1486 1483 1478 1473 1467 1462 1463 1463 1463 1459 1458 1462 1458 1447 1442 1441 1440 1438 1437 1437 1435 1433 1433 1431 1429 1428 1427 1426 1424 1424
1499 1499 1499 1499 1498 1498 1498 1497 1497 1496 1497 1497 1496 1496 1496 1496 1496 1496 1497 1497 1497 1498 1498 1498 1498 1499 1499 1490 1485 1488 1489 1489 1490 1490 1490 1491 1491 1491 1492 1492 1493 1493 1493 1494 1494 1494 1495 1495 1496 1496 1495 1494 1492 1491 1488 1487 1487 1485 1483 1480 1478 1474 1464 1459 1461 1461 1460 1457 1456 1460 1456 1444 1436 1435 1435 1434 1434 1433 1431 1429 1428 1427 1424 1423 1422 1422 1420 1419
1496 1496 1497 1497 1497 1496 1495 1495 1494 1495 1495 1495 1494 1494 1493 1494 1494 1494 1495 1494 1495 1495 1495 1496 1496 1498 1497 1488 1484 1486 1485 1486 1486 1486 1488 1488 1489 1489 1489 1491 1491 1491 1492 1492 1492 1493 1494 1494 1495 1494 1494 1493 1492 1491 1487 1485 1482 1482 1483 1477 1473 1472 1462 1455 1457 1457 1456 1455 1455 1458 1453 1439 1430 1430 1430 1430 1430 1428 1426 1424 1423 1422 1420 1418 1417 1416 1415 1413
1494 1494 1494 1495 1495 1494 1493 1493 1493 1493 1493 1492 1492 1492 1491 1492 1492 1493 1493 1493 1494 1493 1494 1495 1494 1497 1495 1486 1482 1482 1482 1482 1483 1484 1485 1486 1487 1488 1488 1489 1489 1490 1491 1491 1491 1492 1492 1493 1493 1493 1493 1492 1491 1490 1487 1484 1479 1478 1481 1477 1471 1469 1462 1455 1454 1455 1455 1454 1453 1455 1449 1434 1426 1426 1426 1426 1425 1423 1422 1419 1418 1416 1413 1412 1411 1410 1410 1408
1491 1492 1492 1492 1492 1492 1491 1491 1491 1491 1491 1490 1490 1489 1490 1490 1490 1491 1491 1492 1492 1492 1493 1494 1494 1496 1491 1482 1480 1480 1479 1480 1480 1481 1482 1484 1485 1486 1487 1488 1488 1489 1489 1490 1490 1491 1491 1492 1492 1491 1491 1491 1490 1490 1489 1484 1477 1473 1476 1476 1470 1468 1465 1459 1453 1453 1456 1455 1452 1451 1445 1432 1424 1423 1422 1421 1420 1418 1417 1414 1412 1410 1407 1406 1405 1404 1404 1402
1489 1489 1489 1489 1490 1489 1489 1488 1489 1489 1489 1488 1488 1488 1489 1489 1489 1489 1489 1490 1491 1493 1494 1492 1494 1495 1483 1476 1478 1477 1477 1478 1478 1479 1481 1482 1483 1484 1486 1487 1488 1488 1489 1489 1489 1490 1490 1491 1491 1489 1489 1490 1489 1489 1488 1481 1475 1474 1475 1474 1470 1466 1465 1460 1454 1453 1455 1454 1451 1447 1439 1428 1422 1418 1416 1414 1413 1413 1411 1408 1405 1403 1401 1400 1399 1398 1397 1397
1486 1486 1486 1487 1487 1487 1487 1486 1487 1487 1487 1487 1486 1487 1488 1488 1488 1488 1489 1490 1489 1489 1488 1485 1486 1485 1476 1472 1475 1475 1475 1476 1476 1477 1479 1480 1481 1482 1484 1486 1487 1488 1488 1488 1487 1488 1489 1488 1490 1488 1484 1483 1483 1483 1482 1476 1474 1475 1476 1475 1473 1470 1464 1458 1454 1452 1454 1454 1449 1442 1433 1424 1418 1414 1410 1406 1407 1408 1404 1400 1399 1396 1395 1394 1393 1391 1391 1390
1484 1484 1484 1484 1484 1484 1484 1484 1485 1485 1485 1485 1485 1487 1487 1488 1488 1487 1487 1486 1481 1479 1478 1476 1476 1475 1473 1473 1474 1474 1475 1475 1475 1476 1477 1478 1480 1481 1484 1485 1487 1488 1487 1485 1485 1487 1487 1486 1484 1481 1476 1475 1476 1478 1477 1476 1476 1478 1478 1476 1474 1472 1463 1455 1453 1452 1455 1455 1446 1437 1430 1422 1415 1409 1403 1400 1399 1400 1396 1394 1392 1390 1389 1388 1387 1386 1385 1384
1481 1482 1481 1481 1482 1481 1482 1482 1483 1484 1483 1483 1484 1485 1485 1486 1485 1484 1484 1480 1475 1474 1474 1473 1473 1472 1471 1472 1472 1473 1474 1474 1474 1474 1475 1477 1479 1480 1482 1484 1485 1485 1484 1484 1485 1486 1486 1483 1476 1471 1471 1473 1476 1479 1479 1479 1479 1479 1478 1475 1471 1469 1462 1453 1452 1452 1454 1456 1444 1434 1427 1417 1411 1404 1396 1393 1393 1391 1388 1388 1387 1384 1384 1383 1382 1381 1380 1379
1480 1480 1479 1480 1479 1479 1480 1480 1481 1482 1482 1482 1483 1483 1482 1483 1483 1482 1483 1478 1471 1471 1472 1471 1471 1469 1468 1470 1471 1472 1473 1472 1473 1472 1473 1475 1477 1478 1479 1481 1483 1481 1483 1485 1484 1484 1483 1476 1468 1467 1471 1475 1478 1480 1481 1481 1481 1479 1477 1476 1470 1464 1459 1451 1450 1454 1457 1456 1444 1436 1429 1413 1403 1397 1389 1388 1387 1384 1383 1383 1382 1381 1380 1380 1379 1378 1377 1376
1478 1478 1478 1478 1477 1478 1478 1479 1479 1480 1480 1480 1480 1481 1480 1481 1481 1481 1482 1479 1470 1465 1466 1466 1465 1463 1463 1466 1467 1469 1470 1469 1470 1470 1471 1473 1474 1476 1477 1478 1479 1480 1482 1482 1480 1480 1476 1469 1466 1468 1471 1474 1478 1480 1482 1481 1480 1477 1474 1473 1467 1460 1461 1455 1450 1454 1455 1452 1446 1441 1431 1408 1393 1388 1382 1382 1382 1379 1381 1380 1378 1379 1377 1376 1376 1375 1374 1373
1476 1476 1477 1476 1477 1477 1476 1477 1478 1477 1478 1479 1479 1479 1479 1479 1480 1480 1481 1478 1469 1462 1460 1459 1460 1458 1457 1460 1463 1466 1467 1466 1467 1467 1468 1469 1471 1474 1475 1475 1477 1479 1479 1478 1477 1474 1469 1466 1467 1469 1471 1473 1476 1477 1480 1478 1473 1471 1470 1470 1464 1458 1461 1457 1452 1453 1449 1447 1448 1443 1427 1399 1385 1385 1378 1376 1379 1377 1377 1376 1375 1376 1375 1374 1373 1373 1373 1370
1473 1475 1475 1475 1476 1475 1476 1476 1475 1476 1476 1476 1477 1477 1478 1479 1479 1481 1481 1477 1468 1459 1457 1455 1455 1454 1452 1457 1460 1462 1465 1464 1463 1464 1465 1466 1468 1471 1473 1474 1475 1474 1474 1476 1478 1473 1466 1465 1467 1469 1471 1473 1474 1473 1474 1475 1470 1466 1464 1465 1462 1458 1459 1457 1457 1457 1448 1444 1445 1446 1436 1404 1382 1383 1379 1375 1377 1375 1373 1374 1374 1374 1374 1374 1372 1371 1371 1368
1471 1472 1473 1474 1474 1474 1476 1474 1472 1474 1474 1474 1476 1476 1478 1478 1480 1480 1480 1478 1465 1453 1452 1452 1450 1450 1450 1454 1457 1461 1464 1460 1458 1461 1463 1464 1465 1467 1470 1472 1472 1471 1472 1476 1478 1471 1465 1465 1465 1467 1469 1470 1472 1470 1469 1472 1472 1466 1461 1461 1461 1459 1460 1460 1460 1459 1452 1445 1442 1448 1450 1424 1392 1380 1378 1378 1377 1373 1373 1373 1373 1374 1373 1372 1372 1371 1369 1367
1468 1469 1470 1472 1473 1472 1472 1471 1471 1472 1472 1474 1474 1476 1477 1477 1480 1480 1479 1477 1458 1441 1444 1448 1448 1449 1449 1452 1455 1458 1458 1454 1455 1459 1460 1462 1464 1466 1466 1468 1470 1471 1472 1477 1475 1466 1462 1466 1466 1466 1467 1468 1469 1466 1464 1469 1469 1464 1462 1463 1462 1461 1462 1460 1460 1458 1453 1449 1444 1445 1450 1440 1415 1389 1376 1378 1377 1373 1373 1372 1372 1371 1371 1370 1370 1369 1368 1366
1464 1466 1467 1469 1470 1469 1468 1469 1470 1470 1472 1473 1473 1476 1476 1477 1480 1478 1479 1474 1448 1432 1440 1445 1447 1448 1448 1453 1454 1455 1454 1452 1455 1458 1458 1461 1462 1464 1465 1465 1467 1468 1471 1473 1467 1459 1460 1464 1464 1465 1467 1466 1463 1460 1461 1465 1465 1461 1463 1465 1462 1462 1461 1459 1460 1455 1453 1453 1444 1442 1447 1444 1422 1390 1375 1379 1379 1376 1373 1372 1372 1369 1368 1369 1368 1368 1367 1366
1461 1462 1463 1466 1468 1467 1466 1466 1468 1469 1470 1471 1473 1475 1475 1479 1479 1476 1483 1472 1438 1430 1440 1442 1446 1448 1449 1454 1454 1454 1455 1454 1455 1456 1458 1461 1461 1462 1463 1464 1466 1467 1469 1468 1462 1458 1461 1463 1462 1462 1462 1459 1457 1459 1461 1462 1461 1462 1464 1465 1463 1463 1461 1460 1459 1453 1455 1455 1442 1439 1446 1441 1417 1387 1378 1382 1379 1376 1374 1371 1371 1368 1367 1368 1366 1366 1366 1365
1457 1458 1460 1464 1465 1464 1463 1463 1467 1468 1469 1471 1472 1473 1476 1479 1475 1475 1482 1460 1428 1431 1442 1441 1445 1448 1449 1453 1455 1455 1455 1454 1455 1456 1459 1460 1460 1461 1462 1463 1466 1467 1468 1468 1463 1459 1461 1463 1463 1461 1457 1455 1457 1461 1463 1462 1462 1464 1464 1462 1460 1458 1458 1459 1457 1454 1454 1447 1437 1441 1445 1444 1425 1392 1378 1382 1378 1376 1376 1373 1370 1368 1367 1366 1365 1366 1365 1365
1452 1454 1456 1458 1459 1460 1459 1462 1464 1466 1469 1470 1471 1474 1476 1476 1474 1472 1462 1436 1422 1435 1441 1441 1446 1446 1447 1450 1451 1453 1454 1455 1455 1455 1457 1458 1459 1461 1461 1462 1466 1468 1468 1466 1462 1459 1460 1461 1459 1457 1454 1455 1458 1460 1463 1464 1464 1465 1462 1460 1457 1452 1452 1454 1454 1457 1452 1436 1434 1443 1444 1446 1434 1398 1377 1378 1377 1376 1378 1376 1373 1369 1367 1366 1365 1366 1365 1365
1449 1450 1451 1453 1455 1456 1456 1459 1462 1464 1468 1468 1471 1474 1471 1473 1472 1458 1440 1425 1424 1432 1433 1439 1445 1444 1446 1447 1447 1451 1453 1453 1454 1453 1454 1455 1455 1456 1455 1455 1458 1462 1461 1459 1457 1456 1454 1451 1451 1453 1453 1455 1456 1457 1461 1462 1463 1464 1461 1462 1461 1454 1452 1450 1447 1449 1443 1432 1436 1444 1443 1441 1426 1397 1381 1377 1375 1376 1378 1377 1375 1372 1369 1367 1366 1366 1364 1364
1445 1446 1448 1449 1450 1452 1454 1458 1462 1464 1465 1467 1471 1472 1470 1471 1456 1434 1429 1427 1425 1428 1431 1436 1441 1443 1446 1446 1446 1450 1451 1451 1452 1453 1453 1453 1453 1452 1451 1450 1453 1454 1451 1452 1455 1453 1447 1444 1447 1451 1450 1451 1452 1451 1453 1454 1458 1460 1457 1458 1459 1457 1459 1454 1446 1445 1440 1433 1437 1444 1443 1432 1411 1390 1380 1376 1375 1377 1378 1378 1377 1374 1372 1369 1367 1366 1364 1364
1442 1442 1444 1445 1446 1449 1451 1456 1460 1461 1463 1465 1468 1470 1471 1462 1435 1418 1425 1427 1426 1432 1435 1435 1441 1445 1445 1443 1444 1447 1448 1449 1451 1452 1454 1454 1453 1451 1448 1450 1452 1452 1451 1452 1451 1449 1444 1436 1442 1448 1447 1448 1448 1446 1446 1448 1453 1455 1453 1455 1454 1451 1453 1450 1442 1439 1439 1437 1439 1445 1439 1421 1401 1383 1373 1374 1376 1376 1377 1377 1377 1375 1373 1371 1369 1367 1365 1364
1438 1439 1440 1441 1443 1444 1447 1452 1456 1459 1462 1462 1465 1467 1459 1442 1425 1419 1421 1423 1427 1434 1436 1438 1441 1444 1445 1444 1444 1444 1443 1445 1449 1452 1453 1451 1448 1444 1441 1443 1447 1449 1451 1449 1444 1446 1445 1436 1441 1450 1449 1449 1448 1446 1448 1448 1451 1454 1454 1455 1452 1446 1444 1447 1450 1451 1453 1450 1441 1437 1427 1407 1393 1379 1371 1374 1375 1374 1377 1377 1377 1376 1373 1372 1370 1368 1367 1366
1434 1435 1436 1436 1436 1438 1443 1449 1451 1455 1458 1459 1462 1459 1439 1421 1420 1421 1417 1418 1424 1428 1435 1439 1439 1441 1444 1443 1444 1445 1442 1442 1448 1451 1450 1449 1444 1441 1438 1435 1439 1442 1442 1439 1437 1441 1442 1438 1446 1452 1450 1451 1450 1448 1450 1448 1447 1453 1454 1451 1449 1449 1444 1445 1455 1462 1465 1454 1433 1425 1417 1402 1393 1379 1369 1373 1373 1371 1376 1376 1376 1376 1373 1372 1370 1369 1368 1367
1429 1430 1430 1429 1430 1433 1438 1444 1447 1451 1455 1457 1455 1443 1424 1415 1417 1417 1415 1417 1420 1422 1427 1428 1427 1433 1437 1437 1438 1441 1441 1442 1447 1447 1445 1446 1439 1433 1434 1432 1432 1434 1431 1430 1431 1433 1433 1434 1446 1452 1448 1451 1453 1450 1451 1450 1448 1449 1449 1446 1446 1451 1449 1447 1450 1451 1452 1444 1427 1423 1417 1406 1401 1386 1369 1371 1372 1370 1373 1374 1375 1375 1373 1372 1371 1370 1369 1369
1425 1426 1424 1423 1425 1428 1434 1440 1443 1446 1451 1454 1448 1434 1422 1419 1417 1414 1415 1417 1417 1420 1421 1417 1417 1422 1426 1429 1431 1436 1439 1438 1442 1444 1440 1440 1431 1421 1425 1427 1425 1426 1426 1428 1431 1431 1430 1431 1442 1454 1451 1450 1453 1450 1448 1450 1450 1448 1447 1448 1448 1446 1445 1449 1451 1444 1442 1438 1426 1420 1417 1409 1405 1390 1373 1373 1374 1372 1374 1374 1374 1373 1373 1372 1371 1370 1370 1369
1422 1421 1418 1417 1420 1424 1430 1435 1438 1443 1448 1448 1442 1430 1421 1419 1417 1416 1416 1415 1415 1417 1416 1413 1415 1418 1421 1424 1425 1431 1436 1432 1437 1439 1432 1431 1425 1416 1418 1419 1419 1422 1424 1428 1431 1430 1431 1429 1435 1451 1453 1450 1451 1447 1441 1443 1450 1452 1448 1449 1449 1444 1441 1444 1446 1441 1438 1435 1428 1422 1414 1401 1392 1384 1377 1375 1373 1374 1375 1375 1374 1373 1373 1373 1372 1371 1371 1371
1418 1417 1412 1413 1416 1419 1426 1431 1434 1439 1439 1433 1428 1422 1418 1418 1417 1416 1415 1415 1415 1414 1412 1411 1413 1416 1419 1424 1425 1428 1431 1430 1432 1433 1426 1423 1420 1414 1414 1413 1416 1422 1425 1429 1431 1429 1432 1429 1430 1445 1453 1449 1443 1438 1433 1432 1440 1446 1445 1446 1447 1446 1446 1445 1443 1443 1439 1434 1433 1431 1416 1392 1378 1377 1377 1375 1373 1375 1377 1376 1374 1373 1372 1372 1373 1372 1372 1371
1415 1412 1408 1410 1413 1414 1421 1428 1429 1430 1428 1423 1420 1417 1416 1415 1415 1415 1414 1415 1414 1412 1411 1410 1411 1413 1416 1421 1423 1424 1428 1429 1429 1429 1424 1420 1415 1410 1409 1410 1413 1420 1426 1432 1432 1428 1430 1428 1428 1439 1445 1438 1432 1434 1437 1433 1433 1435 1434 1435 1436 1438 1443 1441 1440 1447 1448 1439 1434 1436 1424 1394 1374 1372 1373 1373 1375 1376 1376 1376 1374 1372 1371 1371 1371 1371 1371 1371
1409 1405 1403 1406 1406 1407 1415 1420 1420 1420 1419 1414 1410 1409 1410 1411 1412 1413 1413 1413 1414 1412 1411 1410 1410 1411 1413 1414 1417 1421 1425 1426 1427 1426 1420 1416 1412 1407 1407 1409 1412 1414 1419 1426 1426 1423 1425 1427 1429 1431 1431 1432 1435 1440 1442 1439 1437 1437 1433 1431 1430 1430 1432 1430 1431 1439 1449 1448 1440 1443 1434 1398 1372 1373 1374 1374 1377 1376 1376 1377 1375 1373 1371 1370 1369 1369 1370 1370
1402 1400 1401 1402 1401 1402 1408 1412 1413 1414 1410 1404 1402 1404 1406 1406 1408 1410 1410 1411 1411 1410 1410 1410 1409 1410 1410 1411 1413 1417 1421 1421 1421 1420 1416 1414 1411 1407 1407 1410 1412 1413 1415 1419 1421 1423 1426 1427 1428 1427 1425 1431 1439 1441 1442 1442 1440 1436 1433 1432 1431 1427 1425 1426 1428 1430 1437 1440 1437 1439 1430 1394 1373 1378 1377 1375 1378 1377 1376 1376 1374 1372 1369 1367 1367 1366 1367 1367
1397 1397 1399 1400 1399 1399 1398 1399 1402 1404 1402 1401 1403 1404 1405 1404 1404 1405 1406 1406 1407 1408 1407 1406 1406 1407 1407 1408 1410 1412 1416 1415 1413 1413 1412 1412 1409 1407 1407 1408 1410 1411 1411 1411 1413 1417 1421 1420 1423 1427 1426 1428 1432 1435 1436 1439 1439 1432 1427 1429 1429 1426 1427 1431 1435 1434 1432 1428 1423 1424 1414 1386 1376 1380 1376 1375 1376 1372 1372 1372 1371 1371 1368 1365 1365 1363 1364 1365
1395 1395 1395 1397 1397 1394 1388 1385 1388 1390 1394 1398 1400 1399 1401 1401 1398 1398 1401 1403 1404 1405 1404 1402 1403 1404 1406 1408 1408 1409 1411 1410 1409 1409 1409 1410 1408 1407 1408 1408 1408 1408 1407 1407 1406 1409 1412 1413 1414 1418 1419 1418 1418 1418 1416 1418 1427 1429 1426 1426 1426 1425 1427 1428 1428 1430 1428 1422 1417 1414 1399 1379 1376 1378 1374 1374 1374 1368 1367 1368 1368 1370 1368 1365 1364 1362 1361 1361
1390 1389 1391 1394 1394 1390 1385 1383 1383 1383 1386 1392 1393 1393 1395 1395 1393 1394 1398 1400 1401 1401 1400 1400 1401 1402 1404 1405 1406 1407 1408 1408 1409 1408 1407 1407 1406 1406 1407 1408 1409 1409 1409 1407 1406 1407 1411 1411 1408 1404 1402 1400 1398 1400 1402 1406 1414 1418 1419 1420 1422 1421 1421 1420 1420 1420 1418 1416 1410 1404 1394 1381 1377 1380 1376 1373 1374 1370 1367 1367 1367 1368 1366 1364 1363 1361 1360 1359
1383 1380 1380 1385 1387 1385 1384 1383 1383 1381 1380 1383 1384 1383 1386 1389 1389 1393 1396 1395 1394 1396 1398 1399 1399 1399 1398 1400 1403 1406 1406 1408 1409 1406 1404 1404 1405 1407 1408 1408 1410 1410 1410 1409 1407 1407 1410 1409 1405 1401 1398 1396 1394 1398 1403 1405 1405 1405 1407 1411 1415 1418 1418 1418 1415 1409 1410 1411 1400 1394 1395 1387 1379 1381 1378 1372 1372 1371 1368 1368 1367 1365 1363 1361 1360 1360 1359 1357
1378 1373 1370 1371 1372 1373 1375 1375 1376 1377 1376 1377 1376 1375 1378 1383 1385 1387 1388 1388 1389 1393 1395 1395 1393 1391 1391 1395 1401 1403 1404 1408 1406 1401 1400 1403 1405 1407 1407 1408 1410 1410 1410 1411 1407 1406 1407 1403 1401 1402 1400 1398 1399 1401 1403 1404 1402 1401 1401 1402 1405 1411 1414 1413 1409 1404 1404 1402 1389 1386 1392 1384 1377 1380 1378 1371 1369 1368 1367 1367 1365 1363 1362 1359 1358 1359 1358 1355
1374 1371 1368 1366 1363 1362 1363 1365 1368 1372 1373 1374 1373 1370 1370 1374 1376 1377 1378 1383 1388 1387 1387 1387 1384 1383 1387 1392 1397 1398 1399 1400 1397 1393 1397 1402 1403 1403 1405 1407 1409 1410 1411 1411 1408 1408 1406 1399 1398 1402 1400 1397 1398 1399 1401 1403 1403 1400 1399 1397 1398 1402 1405 1405 1403 1400 1398 1390 1381 1383 1383 1374 1373 1376 1372 1368 1365 1362 1365 1367 1363 1361 1360 1357 1358 1360 1358 1353
1372 1370 1367 1365 1362 1360 1361 1363 1367 1370 1371 1372 1371 1368 1366 1366 1366 1368 1370 1375 1379 1379 1380 1380 1375 1376 1382 1388 1392 1391 1387 1385 1387 1389 1394 1399 1399 1400 1401 1402 1404 1410 1413 1411 1409 1409 1405 1400 1400 1402 1401 1398 1396 1397 1399 1400 1400 1397 1393 1391 1392 1394 1398 1400 1399 1398 1396 1387 1383 1386 1379 1369 1370 1370 1364 1365 1365 1359 1359 1361 1360 1358 1357 1357 1359 1359 1354 1350
1370 1369 1368 1366 1362 1359 1359 1360 1363 1367 1367 1367 1366 1365 1364 1361 1360 1363 1365 1366 1369 1371 1372 1371 1368 1372 1379 1385 1387 1383 1376 1378 1384 1387 1390 1393 1393 1395 1397 1397 1400 1406 1410 1410 1408 1407 1406 1404 1402 1404 1403 1396 1393 1397 1398 1397 1400 1397 1385 1383 1388 1389 1391 1393 1391 1390 1389 1384 1385 1388 1378 1366 1366 1366 1361 1363 1366 1359 1351 1352 1357 1357 1357 1357 1357 1354 1351 1348
1368 1368 1367 1367 1364 1360 1357 1357 1359 1361 1359 1358 1359 1360 1358 1356 1357 1361 1364 1364 1365 1366 1365 1365 1366 1373 1379 1381 1378 1371 1369 1376 1383 1386 1388 1390 1390 1392 1394 1395 1396 1399 1404 1407 1405 1403 1403 1401 1400 1403 1399 1393 1397 1402 1398 1399 1403 1390 1370 1369 1378 1382 1382 1382 1380 1379 1380 1379 1379 1376 1365 1358 1361 1364 1362 1360 1360 1354 1347 1348 1354 1356 1356 1355 1352 1350 1349 1346